N216TB TFFJ-TNCS

Flight info

Callsign N216TB
Flight time 0h 14m
Altitude 4000
Route DCT CS200 DCT CS100 DCT
Aircraft K100/L-L/C

Departure

Time 2026-04-24 12:34
Airport St. Jean Airport (TFFJ)

Arrival

Time 2026-04-24 12:48
Airport Juancho E. Yrausquin Airport (TNCS)
Time Latitude Longitude Altitude Speed Heading
2026-04-24 12:20 17.90470 -62.84626 53 ft 0 kts 144°
2026-04-24 12:31 17.90480 -62.84631 50 ft 0 kts 166°
2026-04-24 12:31 17.90478 -62.84631 50 ft 2 kts 171°
2026-04-24 12:32 17.90470 -62.84635 52 ft 0 kts 221°
2026-04-24 12:32 17.90467 -62.84641 53 ft 0 kts 257°
2026-04-24 12:32 17.90451 -62.84660 51 ft 3 kts 179°
2026-04-24 12:32 17.90444 -62.84659 51 ft 1 kts 175°
2026-04-24 12:33 17.90432 -62.84651 51 ft 1 kts 90°
2026-04-24 12:33 17.90432 -62.84649 50 ft 0 kts 88°
2026-04-24 12:33 17.90437 -62.84553 43 ft 51 kts 88°
2026-04-24 12:33 17.90448 -62.83934 142 ft 105 kts 86°
2026-04-24 12:34 17.90896 -62.83360 631 ft 118 kts 20°
2026-04-24 12:34 17.91764 -62.83477 1052 ft 136 kts 345°
2026-04-24 12:34 17.92637 -62.83927 1478 ft 146 kts 318°
2026-04-24 12:34 17.92993 -62.84906 1922 ft 151 kts 263°
2026-04-24 12:35 17.92478 -62.85832 2364 ft 150 kts 216°
2026-04-24 12:35 17.91643 -62.86494 2808 ft 151 kts 214°
2026-04-24 12:35 17.90808 -62.87157 3234 ft 152 kts 214°
2026-04-24 12:35 17.89967 -62.87815 3664 ft 150 kts 213°
2026-04-24 12:36 17.89101 -62.88426 4011 ft 157 kts 216°
2026-04-24 12:36 17.88357 -62.89351 4017 ft 175 kts 240°
2026-04-24 12:36 17.87842 -62.90538 4023 ft 181 kts 246°
2026-04-24 12:36 17.87343 -62.91765 4026 ft 183 kts 245°
2026-04-24 12:37 17.86829 -62.92991 4029 ft 185 kts 244°
2026-04-24 12:37 17.86307 -62.94226 4026 ft 186 kts 245°
2026-04-24 12:37 17.85786 -62.95464 4029 ft 185 kts 245°
2026-04-24 12:37 17.85273 -62.96684 4026 ft 185 kts 244°
2026-04-24 12:38 17.84753 -62.97918 4027 ft 185 kts 245°
2026-04-24 12:38 17.84233 -62.99154 4028 ft 185 kts 245°
2026-04-24 12:38 17.83713 -63.00390 4026 ft 186 kts 244°
2026-04-24 12:39 17.82153 -63.04091 4022 ft 185 kts 244°
2026-04-24 12:39 17.81634 -63.05325 4020 ft 185 kts 244°
2026-04-24 12:39 17.81110 -63.06564 4021 ft 186 kts 244°
2026-04-24 12:40 17.80595 -63.07786 4021 ft 186 kts 245°
2026-04-24 12:40 17.80073 -63.09025 4019 ft 185 kts 245°
2026-04-24 12:40 17.79552 -63.10260 4020 ft 185 kts 245°
2026-04-24 12:40 17.79031 -63.11494 4022 ft 185 kts 245°
2026-04-24 12:41 17.78510 -63.12728 4022 ft 185 kts 245°
2026-04-24 12:41 17.77989 -63.13962 4021 ft 185 kts 245°
2026-04-24 12:41 17.77465 -63.15201 4020 ft 186 kts 245°
2026-04-24 12:41 17.76939 -63.16448 3885 ft 189 kts 245°
2026-04-24 12:42 17.76422 -63.17674 3694 ft 185 kts 244°
2026-04-24 12:42 17.75904 -63.18899 3486 ft 183 kts 245°
2026-04-24 12:42 17.75391 -63.20114 3298 ft 182 kts 245°
2026-04-24 12:42 17.74877 -63.21330 3102 ft 183 kts 244°
2026-04-24 12:43 17.74362 -63.22547 2907 ft 182 kts 244°
2026-04-24 12:43 17.73848 -63.23763 2712 ft 182 kts 244°
2026-04-24 12:43 17.73333 -63.24978 2513 ft 182 kts 245°
2026-04-24 12:43 17.72991 -63.25782 2381 ft 182 kts 243°
2026-04-24 12:44 17.72192 -63.26770 2189 ft 178 kts 211°
2026-04-24 12:44 17.71056 -63.27220 2021 ft 173 kts 188°
2026-04-24 12:44 17.69950 -63.27457 1958 ft 149 kts 188°
2026-04-24 12:44 17.68693 -63.27721 1650 ft 135 kts 188°
2026-04-24 12:45 17.67769 -63.27907 1462 ft 138 kts 185°
2026-04-24 12:45 17.66847 -63.28009 1478 ft 132 kts 177°
2026-04-24 12:45 17.66016 -63.27678 1237 ft 135 kts 134°
2026-04-24 12:45 17.65644 -63.27160 953 ft 130 kts 116°
2026-04-24 12:46 17.65475 -63.26340 699 ft 104 kts 84°
2026-04-24 12:46 17.65516 -63.25717 648 ft 74 kts 82°
2026-04-24 12:46 17.65547 -63.25164 615 ft 77 kts 92°
2026-04-24 12:46 17.65470 -63.24406 628 ft 79 kts 97°
2026-04-24 12:47 17.65333 -63.23895 652 ft 73 kts 109°
2026-04-24 12:47 17.65187 -63.23559 611 ft 75 kts 112°
2026-04-24 12:47 17.64975 -63.23083 383 ft 70 kts 114°
2026-04-24 12:47 17.64791 -63.22652 232 ft 64 kts 109°
2026-04-24 12:48 17.64587 -63.22187 145 ft 68 kts 110°
2026-04-24 12:48 17.64452 -63.21872 107 ft 29 kts 110°
2026-04-24 12:48 17.64429 -63.21839 55 ft 20 kts 124°